FW7700 Weather Reports


Display with metric or nautical units.
time (UTC)temp
F
wind
direction
speed
MPH
gust
MPH
rain 1hr
in
rain 24hr
in
rain mn
in
humidity
%
barometer
mb
20260505140407 74 209 4.0 6.0 0.00 0.00 0.00 50 1009.5
20260505130201 68 175 1.0 2.0 0.00 0.00 0.00 62 1010.8
20260505124119 66 186 4.0 4.0 0.00 0.00 0.00 65 1010.5
20260505123058 65 167 2.0 3.0 0.00 0.00 0.00 66 1010.5
20260505122037 64 169 1.0 1.0 0.00 0.00 0.00 68 1010.2
20260505121016 63 147 2.0 4.0 0.00 0.00 0.00 68 1010.2
20260505115955 62 185 1.0 2.0 0.00 0.00 0.00 70 1010.5
20260505114934 62 140 0.0 0.0 0.00 0.00 0.00 72 1010.2
20260505113913 60 148 0.0 0.0 0.00 0.00 0.00 76 1010.2
20260505112852 58 141 0.0 0.0 0.00 0.00 0.00 79 1009.8
20260505111831 57 144 0.0 0.0 0.00 0.00 0.00 82 1009.8
20260505110810 57 148 0.0 0.0 0.00 0.00 0.00 83 1009.5
20260505101625 55 140 0.0 1.0 0.00 0.00 0.00 83 1009.5
20260505100604 55 131 0.0 0.0 0.00 0.00 0.00 82 1009.1
20260505094522 56 137 0.0 1.0 0.00 0.00 0.00 80 1009.1
20260505093501 57 221 3.0 3.0 0.00 0.00 0.00 79 1008.8
20260505092440 57 116 1.0 1.0 0.00 0.00 0.00 78 1008.8
20260505091419 57 152 0.0 1.0 0.00 0.00 0.00 77 1008.8
20260505090358 57 153 0.0 0.0 0.00 0.00 0.00 78 1008.8
20260505085337 57 148 0.0 0.0 0.00 0.00 0.00 78 1009.1
20260505084316 55 139 0.0 0.0 0.00 0.00 0.00 80 1008.8
20260505083255 56 145 0.0 0.0 0.00 0.00 0.00 79 1008.8
20260505082234 57 150 0.0 0.0 0.00 0.00 0.00 78 1008.5
20260505081213 57 146 0.0 0.0 0.00 0.00 0.00 78 1008.8
20260505080152 56 143 0.0 0.0 0.00 0.00 0.00 79 1008.8
20260505075131 56 140 0.0 0.0 0.00 0.00 0.00 78 1008.8
20260505074110 57 143 0.0 0.0 0.00 0.00 0.00 77 1008.5
20260505073049 57 141 0.0 0.0 0.00 0.00 0.00 76 1008.5
20260505072028 57 143 0.0 0.0 0.00 0.00 0.00 75 1008.5
20260505071007 58 141 0.0 0.0 0.00 0.00 0.00 73 1008.5
20260505065946 59 152 0.0 1.0 0.00 0.00 0.00 71 1008.8
20260505064925 60 161 1.0 1.0 0.00 0.00 0.00 70 1008.8
20260505063904 60 141 0.0 0.0 0.00 0.00 0.00 69 1009.1
20260505062843 61 148 0.0 0.0 0.00 0.00 0.00 68 1009.1
20260505061822 61 143 0.0 0.0 0.00 0.00 0.00 67 1008.8
20260505060801 61 144 1.0 1.0 0.00 0.00 0.00 66 1008.8
20260505055740 62 141 0.0 1.0 0.00 0.00 0.00 64 1009.1
20260505054718 63 142 1.0 2.0 0.00 0.00 0.00 63 1008.8
20260505053658 62 273 3.0 3.0 0.00 0.00 0.00 64 1009.1
20260505052636 61 147 0.0 1.0 0.00 0.00 0.00 66 1008.8
20260505051616 62 144 0.0 0.0 0.00 0.00 0.00 66 1008.8
20260505050555 62 187 2.0 3.0 0.00 0.00 0.00 65 1008.8
20260505041410 61 170 0.0 0.0 0.00 0.00 0.00 65 1009.1
20260505040348 61 149 0.0 0.0 0.00 0.00 0.00 64 1008.5
20260505035328 62 158 0.0 0.0 0.00 0.00 0.00 62 1008.8
20260505034306 63 189 1.0 1.0 0.00 0.00 0.00 61 1008.5
20260505033246 63 206 3.0 4.0 0.00 0.00 0.00 60 1008.5
20260505032224 63 207 3.0 4.0 0.00 0.00 0.00 60 1008.5
20260505031204 64 155 1.0 1.0 0.00 0.00 0.00 58 1008.5
20260505030143 64 178 2.0 3.0 0.00 0.00 0.00 58 1008.5
20260505025122 63 164 2.0 2.0 0.00 0.00 0.00 58 1008.5
20260505024100 64 144 0.0 1.0 0.00 0.00 0.00 58 1008.5
20260505023040 64 152 1.0 1.0 0.00 0.00 0.00 57 1008.8
20260505022018 65 180 2.0 2.0 0.00 0.00 0.00 55 1008.8
20260505020958 64 180 1.0 1.0 0.00 0.00 0.00 55 1008.8
20260505015937 65 169 2.0 2.0 0.00 0.00 0.00 54 1008.8
20260505014916 66 189 1.0 2.0 0.00 0.00 0.00 52 1008.8
20260505013855 65 181 1.0 2.0 0.00 0.00 0.00 53 1009.1
20260505012834 66 203 2.0 3.0 0.00 0.00 0.00 51 1009.1
20260505011812 65 164 1.0 2.0 0.00 0.00 0.00 51 1008.5
20260505010752 65 198 4.0 4.0 0.00 0.00 0.00 51 1008.5
20260505005731 66 164 1.0 2.0 0.00 0.00 0.00 50 1008.5
20260505004710 66 144 2.0 3.0 0.00 0.00 0.00 50 1008.1
20260505003622 66 147 1.0 1.0 0.00 0.00 0.00 50 1008.5
20260505002601 67 129 0.0 0.0 0.00 0.00 0.00 49 1008.1
20260505001540 67 242 2.0 3.0 0.00 0.00 0.00 48 1008.5
20260505000519 68 123 1.0 1.0 0.00 0.00 0.00 47 1008.1
20260504235457 69 184 2.0 2.0 0.00 0.00 0.00 46 1008.1
20260504234436 69 164 4.0 4.0 0.00 0.00 0.00 45 1008.1
20260504233415 70 224 3.0 3.0 0.00 0.00 0.00 45 1007.8
20260504232354 71 189 4.0 4.0 0.00 0.00 0.00 44 1007.8
20260504231334 71 180 3.0 4.0 0.00 0.00 0.00 43 1007.8
20260504230312 72 190 5.0 6.0 0.00 0.00 0.00 43 1007.8
20260504225252 72 191 2.0 3.0 0.00 0.00 0.00 43 1007.8
20260504224231 73 199 1.0 1.0 0.00 0.00 0.00 41 1007.8
20260504223209 73 199 3.0 3.0 0.00 0.00 0.00 41 1007.8
20260504222148 74 175 3.0 4.0 0.00 0.00 0.00 40 1007.4
20260504221127 75 204 2.0 2.0 0.00 0.00 0.00 40 1007.8
20260504220106 75 185 2.0 3.0 0.00 0.00 0.00 38 1007.8
20260504215045 75 194 7.0 8.0 0.00 0.00 0.00 37 1007.8
20260504214024 75 199 3.0 6.0 0.00 0.00 0.00 39 1007.8
20260504213003 75 176 4.0 6.0 0.00 0.00 0.00 37 1008.1
20260504211942 76 272 5.0 7.0 0.00 0.00 0.00 37 1007.8
20260504210921 76 198 2.0 2.0 0.00 0.00 0.00 37 1007.8
20260504205900 75 190 1.0 2.0 0.00 0.00 0.00 37 1007.8
20260504204839 75 225 3.0 4.0 0.00 0.00 0.00 39 1007.8
20260504203818 75 191 2.0 2.0 0.00 0.00 0.00 37 1007.8
20260504202757 76 153 4.0 6.0 0.00 0.00 0.00 38 1007.8
20260504201736 75 182 1.0 2.0 0.00 0.00 0.00 38 1008.1
20260504200715 75 205 2.0 3.0 0.00 0.00 0.00 39 1008.5
20260504195654 75 258 5.0 7.0 0.00 0.00 0.00 37 1008.5
20260504194633 74 247 4.0 4.0 0.00 0.00 0.00 38 1008.5
20260504193612 74 179 6.0 9.0 0.00 0.00 0.00 39 1008.5
20260504192551 74 187 4.0 4.0 0.00 0.00 0.00 37 1008.8
20260504191530 74 211 2.0 3.0 0.00 0.00 0.00 38 1009.1
20260504190509 74 148 4.0 4.0 0.00 0.00 0.00 39 1009.1
20260504185448 73 299 4.0 4.0 0.00 0.00 0.00 37 1009.1
20260504184427 73 201 5.0 7.0 0.00 0.00 0.00 38 1009.5
20260504183406 73 151 6.0 8.0 0.00 0.00 0.00 38 1009.5
20260504182345 73 156 4.0 6.0 0.00 0.00 0.00 39 1009.8
20260504181324 72 221 3.0 4.0 0.00 0.00 0.00 39 1009.8
20260504180303 72 234 3.0 4.0 0.00 0.00 0.00 40 1010.2
20260504175242 73 225 4.0 4.0 0.00 0.00 0.00 40 1010.2
20260504174221 71 243 5.0 6.0 0.00 0.00 0.00 40 1010.2
20260504173200 71 171 3.0 4.0 0.00 0.00 0.00 39 1010.5
20260504172139 71 227 2.0 4.0 0.00 0.00 0.00 40 1010.8
20260504171118 70 315 3.0 4.0 0.00 0.00 0.00 40 1010.8
20260504150706 66 164 2.0 3.0 0.00 0.00 0.00 42 1012.2